User: anonymous   Login
Location: Unspecified
(0.0000°N, 0.0000°E)
Time: 10:00:52
(UTC+02:00)
Language:

Ariane H10 - Orbit

View from above orbital plane
View from above orbital plane
View from above satellite
View from above satellite

Ground track
Ground track

The orbit data is extracted from the following two-line orbital elements,

1 21815U 91084C   15145.51057522  .00000055  00000-0  64484-3 0  9991
2 21815 004.2006 030.8187 7193717 181.3893 012.6306 02.31310676194861
Epoch (UTC): 25 May 2015 12:15:13
Eccentricity: 0.7193717
inclination: 4.2006°
perigee height: 399 km
apogee height: 35146 km
right ascension of ascending node: 30.8187°
argument of perigee: 181.3893°
revolutions per day: 2.31310676
mean anomaly at epoch: 12.6306°
orbit number at epoch: 19486

The dashed part of the orbit path shows where the satellite is in the earth's shadow,  

DLR